Погода в Покровке

Погода в Покровке : погода сейчас, прогноз погоды и архив. Всё, что Вы хотите узнать о погоде в Покровке!

Поиск расширенной информации на нашем сайте:

Полезная информация: Марс, юпитер, венера, все это космос
www.index-design.ru сделаем раскрутку сайта во Владимире по высокочастотникам

Другие новости

Новости СМИ2

Главная страница сайта

Новости сайта

02.10.2013

Напоминаем, что на нашем новом сайте вы можете получить высокодетализированные прогнозы погоды по пунктам России, СНГ и мира (включающие важные для авиации метеовеличины, такие как направление и скорость ветра, видимость, явления погоды, количество и форма облачности, нижняя и верхняя граница облачности), а также ознакомиться с разнообразными материалами по авиационной метеорологии и подборкой полезных ссылок на эту тему.

Сайт Метеоцентр.Азия посвящён разработке технологий оптимизации авиаметеорологического обслуживания, включая проектирование и перспективное создание нескольких автоматизированных авиаметеорологических систем:
- система выпуска высокодетальных прогностических карт явлений погоды для нижнего воздушного пространства по России и ближнему зарубежью;
- система верификации прогнозов TAF (выпускаемых синоптиками официальных АМСГ РФ и ближнего зарубежья) и AUTOTAF (выпускаемых сайтом Метеоцентр.Азия) - выявление ошибок, онлайн-сопоставление с фактической погодой METAR, автоматическое внесение коррективов в прогнозы при резком отклонении фактической погоды от прогноза, подсчёт оправдываемости прогнозов по элементам и в целом;
- система обработки, анализа и отображения авиаметеорологической информации для применения провайдерами метеорологической информации.

Рекомендуем: заказать музыкантов

Погода в Покровке - сегодня

Время (UTC), дата Ветер
(°,м/с) 
Видим.   Явления Облачность Т
(°С)
Тd
(°С)
f(%) Тe
(°С)
Pmin
(гПа)
dP
(гПа)
Po
(мм)
O2
(г/м3)
Тmin Tmax R s Состояние
почвы
06 25.03.17 270 (З) 20000 м    8/5 600 м верхняя 
[Cu med, cong|Ci fib]
+9.6 -10 24 +11  1018.8  -2  761  297           
09 25.03.17 180 (Ю) 20000 м    6/3 600 м верхняя 
[Sc diur, vesp|Ci fib]
+6.1 -9.3 32 +5  1018.8  0.1  761  301    +10       
12 25.03.17 170 (Ю) 20000 м    10/0 верхняя 
[Ci fib]
+2.2 -7.9 47 +1  1019.9  1.1  762  305           
15 25.03.17 190 (Ю) 20000 м    10/3 600 м верхняя 
[Sc|Ci fib]
+0.7 -4.1 70 -1  1019.9  0.1  762  307           
18 25.03.17 190 (Ю) 20000 м    4/4 600 м 
[Sc]
-0.1 -2.7 83 -2  1019.4  -0.6  761  307           
21 25.03.17 170 (Ю) 20000 м    10/8 600 м кучево-дожд., верхняя 
[Cb cap|Ci fib]
-0.6 -2 90 -2  1019  -0.3  761  308  -0.7         
00 26.03.17 180 (Ю) 10 км    10/3 600 м верхняя 
[Sc diur, vesp|Ci fib]
+2.6 -0.4 81 1019.7  0.8  761  304           
03 26.03.17 190 (Ю) 3{10}  20000 м    10/1 600 м верхняя 
[Cu hum|Ci fib]
+7.7 +0.4 60 +7  1018.8  -0.8  761  298           
06 26.03.17 200 (Ю) 20000 м    6/4 1000 м верхняя 
[Cu med, cong|Ci fib]
+9.1 -3.8 40 +9  1016.9  -1.9  759  297           
09 26.03.17 140 (ЮВ) 20000 м    3/3 1000 м 
[Sc diur, vesp]
+6.1 -1.5 58 +6  1017.8  0.9  760  300    +9.3       
12 26.03.17 160 (Ю) 20000 м    1/1 600 м 
[Sc diur, vesp]
+2.3 -1 79 +2  1018.9  1.1  761  304           
15 26.03.17 100 (В) 20000 м    10/0 средняя 
[As op]
+1 -0.9 87 1019.4  0.4  761  306           
18 26.03.17 170 (Ю) 20000 м    10/0 средняя 
[As op]
+1.1 -0.4 90 +2  1018.7  -0.6  761  305           
21 26.03.17 180 (Ю) 4000 м  дымка  10/0 средняя 
[Ac As]
+0.3 -0.6 94 +1  1018.7  761  306  +0.2         
00 27.03.17 340 (С) 4000 м  дымка  10/3 300 м средняя 
[St|As op]
+2.2 +0.7 90 +3  1019.3  0.7  761  304  -0.1         
03 27.03.17 040 (СВ) 10 км    10/4 600 м верхняя 
[Cu med, cong|Ci fib]
+6.2 -1.5 58 +6  1018.3  -0.9  760  300           
06 27.03.17 080 (В) 20000 м  {ливн. осадки}  10/6 600 м кучево-дожд., верхняя 
[Cb cap|Ci fib]
+7.1 -4.6 43 +8  1016.7  -1.6  759  299           
09 27.03.17 350 (С) 2{10}  20000 м    10/3 600 м кучево-дожд., верхняя 
[Cb cap|Ci fib]
+6.6 -6.8 38 +6  1016.5  -0.2  759  299    +8.1  0.0     
12 27.03.17 200 (Ю) 20000 м    ясно 
-0.3 -4.9 71 1018.1  1.5  760  307           
15 27.03.17 180 (Ю) 20000 м    ясно 
-0.9 -6.1 68 -2  1018.1  760  308           
18 27.03.17 170 (Ю) 20000 м    6/0 средняя 
[Ac trans]
-2.2 -6.3 73 -3  1018.1  760  309           
21 27.03.17 170 (Ю) 20000 м    8/8 600 м 
[Sc]
-2.6 -6.1 77 -5  1018.4  0.3  760  310  -3.2         
00 28.03.17 190 (Ю) 10 км    10/6 600 м средняя, верхняя 
[Sc|Ac trans|Ci fib]
+2.1 -4.8 60 +1  1018.5  0.2  761  305  -3.6         
03 28.03.17 280 (З) 10 км    10/6 600 м верхняя 
[Cu med, cong|Ci fib]
+8.2 -4.2 41 +8  1017.2  -1.3  760  298           
06 28.03.17 230 (ЮЗ) 4{13}  20000 м    10/8 600 м кучево-дожд., средняя, верхняя 
[Cb cap|Ac trans|Ci fib]
+8.3 -3.4 43 +7  1015.5  -1.6  758  297           
Время (UTC), дата Ветер
(°,м/с) 
Видим.   Явления Облачность Т
(°С)
Тd
(°С)
f(%) Тe
(°С)
Pmin
(гПа)
dP
(гПа)
Po
(мм)
O2
(г/м3)
Тmin Tmax R s Состояние
почвы

Для получения пояснительной информации подведите курсор к названию столбца.

ПОГОДА в Покровке - архив

Всё, что Вы хотите узнать о погоде в Покровке - удобно и подробно!

Выберите нужную дату (начиная с 1 января 2015* года) и нажмите кнопку "Найти".
Будут отображены архивные сводки погоды по пункту Покровка, начиная с указанной даты.


Отображать данные в формате CSV (для использования в таблицах Excel)


Внимание! Наш архив погоды предназначен исключительно для личного некоммерческого использования в познавательных целях. Если Вам необходимы официальные справки о состоянии погоды (для производственных, юридических, коммерческих и т.п. целей), обращайтесь в органы Росгидромета.

*Примечание: данная дата относится к архиву по метеостанциям СССР (Россия, СНГ, Балтия).
Архив по метеостанциям Зарубежной Европы и Азии (кроме Китая) хранится 10 дней, по другим регионам земного шара (Китай, Африка, Америка, Австралия, Океания) - 1 день.

Покровка - район местоположения метеостанции


Название, широта, долгота, высота метеостанции:
Покровка 43.9°ш. 131.7°д. 61 м над ур. моря [Российская Федерация]

Дополнительная информация

В oтличие oт бoльшинства пoгoдных сайтoв мы публикуем пoдрoбную метеoинфoрмацию в детальнoм прoфессиoнальнoм фoрмате.

Характеристики температуры и влажнoсти вoздуха измеряются на высoте 2 м в тени вдали oт зданий и деревьев.
Скoрoсть ветра измеряется на высoте 10 м (на урoвне рoста челoвека скoрoсть ветра ниже в 1.5-2 раза). Если метеoстанция нахoдится в гoрoде или в лесу, тo скoрoсть ветра занижена на 2-4 м/с пo сравнению с oткрытым местoм. Скoрoсть ветра над акватoриями крупных рек и oзёр, а также на вершинах хoлмoв на 2-5 м/с выше, чем в oбычных услoвиях.
Атмoсфернoе давление в разных тoчках местнoсти мoжет значительнo oтличаться oт давления на метеoстанции, в зависимoсти oт услoвий рельефа (при пoдъёме на 10 м давление пoнижается примернo на 1 мм рт.ст.).